Вернуться в каталог

STARLINK-5451

АктивенСвязьVLEO
NORAD 54771·PAYLOAD·🇺🇸 United States

Запущен Dec 17, 2022 с Cape Canaveral Space Force Station

Loading…

Ближайшие Пролёты (ближайшие 24 часа)

TLE

СвежийSource: CelesTrak SupGP

Эпоха: Sep 15, 2026, 01:22 UTC

1 54771C 22175P   26258.05743056 -.00011121  00000+0 -41928-3 0  2586
2 54771  53.1565 259.4330 0001625  78.9499 344.1173 15.26532634    18

Отслеживайте STARLINK-5451 в реальном времени с AllMySat

Download on the App Store